Dewpoint
73 72 72 72 73 73 73 72 71 71 71 69 70 71 69 71 72 71 72 73 74 74 74 76 77 76 75 76 76 76 75 75 74 74 74 73 73 73 71 71 71 71
73 73 73 73 73 74 74 72 73 72 72 72 70 70 72 72 72 71 72 72 74 74 75 74 76 76 76 74 75 75 75 75 75 73 74 74 74 73 72 72 71 72
72 73 72 72 71 73 72 73 73 72 71 71 70 70 70 70 72 73 73 73 73 72 74 75 75 76 75 75 75 75 74 76 75 72 74 74 73 73 73 70 70 71
73 73 72 71 72 73 73 73 73 73 71 72 70 68 68 68 71 73 74 74 73 73 73 74 74 73 75 75 75 75 74 75 75 75 74 75 75 73 73 73 71 70
73 73 72 72 72 74 74 73 72 72 71 71 71 70 70 72 72 71 73 73 74 72 73 73 74 73 74 75 76 75 74 73 74 76 75 75 76 75 73 72 73 72
73 74 74 73 73 73 73 73 72 72 72 68 71 69 69 70 70 71 72 72 72 71 69 71 73 73 73 75 75 75 73 71 71 75 75 74 73 72 72 72 73 73
72 73 73 72 72 73 74 74 73 73 71 69 71 70 70 70 70 72 72 72 70 72 69 71 73 73 73 74 75 75 74 74 73 74 75 74 74 74 72 73 74 74
72 72 73 73 72 73 73 73 73 73 73 72 69 71 71 70 71 70 71 71 70 71 72 70 73 74 71 72 74 74 74 72 72 73 75 75 74 74 74 73 73 75
72 73 73 73 71 72 72 71 72 73 73 72 69 69 71 71 72 71 72 73 72 71 73 72 73 73 72 72 73 74 74 72 71 73 74 74 73 74 73 74 74 74
73 73 71 71 71 71 71 70 71 73 73 72 70 68 70 71 72 72 73 74 72 72 73 73 73 73 73 72 72 73 74 74 73 73 73 73 72 72 72 73 73 74
72 71 71 71 71 70 70 70 70 71 72 72 71 68 68 71 72 73 74 74 72 72 74 74 73 74 74 71 71 73 74 74 74 74 74 74 73 73 73 74 73 73
72 71 70 71 70 69 69 70 69 68 70 71 71 69 68 69 72 71 73 75 75 74 74 75 75 75 75 73 70 71 73 73 73 73 72 74 74 73 73 73 73 73
72 70 70 71 71 69 70 70 68 67 68 70 70 69 68 67 70 72 72 74 75 75 74 75 76 75 76 75 73 72 72 73 71 72 73 73 74 73 71 72 72 72
73 72 70 72 72 73 71 69 68 67 68 69 71 70 68 67 68 70 71 72 74 75 75 76 76 75 76 77 75 73 71 73 73 71 71 72 72 73 70 68 68 69
75 74 72 72 73 73 72 70 70 70 69 70 72 71 68 67 67 68 71 72 73 74 75 74 75 75 75 76 76 74 72 71 73 73 71 71 72 70 70 69 67 66
76 76 74 74 74 74 75 73 71 71 69 69 71 71 72 71 70 69 69 71 72 74 74 73 74 75 75 71 73 75 73 70 72 74 73 72 72 72 68 68 68 66
76 76 75 75 75 75 75 75 74 73 74 74 73 73 74 75 71 68 67 69 71 72 73 73 72 73 70 67 68 70 74 73 71 73 75 73 71 73 72 68 67 69
76 76 76 75 76 76 76 76 75 74 75 74 72 73 75 72 71 70 71 68 69 71 72 72 72 71 65 66 66 67 71 74 71 71 72 73 72 70 71 71 68 65
77 77 76 76 76 77 77 76 76 75 74 74 72 74 74 74 75 71 72 71 69 72 70 71 72 67 64 65 65 65 66 72 70 70 69 71 72 72 70 72 72 69
77 77 77 77 77 77 77 77 76 75 75 74 74 75 75 74 73 73 73 74 72 72 74 71 72 66 63 63 64 64 65 68 73 70 70 69 71 72 71 71 73 73
77 78 77 77 78 77 78 77 77 77 76 75 73 74 75 75 74 74 74 74 72 70 71 70 68 64 62 61 62 62 64 66 74 71 70 71 71 72 75 73 73 73
76 77 77 77 78 78 77 77 77 77 77 76 74 72 74 74 75 74 74 74 74 72 70 71 70 61 61 61 60 61 63 72 73 73 73 72 72 73 73 75 75 75
76 76 77 77 77 77 77 77 77 77 76 76 75 73 72 73 75 73 75 74 74 74 72 72 71 65 60 59 59 60 64 74 74 74 74 73 73 73 73 74 75 76
76 76 77 77 77 77 77 76 76 77 76 77 75 73 70 71 73 74 74 74 73 74 73 72 71 69 57 58 58 58 66 74 74 74 74 74 74 74 74 75 75 77
76 76 77 76 77 77 76 76 77 77 76 76 74 74 72 72 72 72 72 73 72 72 74 72 71 68 56 57 57 57 67 75 75 74 74 74 74 74 75 74 75 76
76 77 77 76 77 77 77 77 76 75 75 75 74 74 72 70 69 71 71 71 71 71 71 72 73 72 65 55 56 56 61 75 75 74 73 74 74 74 74 75 75 75